This is the latest recevied weather packets stored in our database for station/object KG7MRB. If no packets are shown the sender has not sent any weather packets the latest 10 day(s).
| Time | Temp. | Humidity | Pressure | Rain* | Wind** | Luminosity | Snow |
|---|---|---|---|---|---|---|---|
| 1778085159 | 11.11° C | 96% | 1037.7 hPa | 0 mm | - | 56 W/m² | - |
| 1778084855 | 11.11° C | 96% | 1037.7 hPa | 0 mm | - | 47 W/m² | - |
| 1778084553 | 11.11° C | 96% | 1037.6 hPa | 0 mm | - | 49 W/m² | - |
| 1778084250 | 11.11° C | 96% | 1037.7 hPa | 0 mm | - | 57 W/m² | - |
| 1778083946 | 11.11° C | 96% | 1037.8 hPa | 0 mm | - | 47 W/m² | - |
| 1778083644 | 11.11° C | 95% | 1038.1 hPa | 0 mm | - | 37 W/m² | - |
| 1778083340 | 11.11° C | 95% | 1037.8 hPa | 0 mm | - | 38 W/m² | - |
| 1778083039 | 11.11° C | 95% | 1037.7 hPa | 0 mm | - | 45 W/m² | - |
| 1778082736 | 11.67° C | 95% | 1037.5 hPa | 0 mm | - | 43 W/m² | - |
| 1778081597 | 11.67° C | 95% | 1037.4 hPa | 0 mm | - | 69 W/m² | - |
| 1778081294 | 11.67° C | 95% | 1037.2 hPa | 0 mm | - | 71 W/m² | - |
| 1778080991 | 11.67° C | 95% | 1037 hPa | 0 mm | - | 72 W/m² | - |
| 1778080691 | 11.67° C | 96% | 1037 hPa | 0 mm | - | 80 W/m² | - |
| 1778080387 | 11.11° C | 96% | 1036.9 hPa | 0 mm | - | 81 W/m² | - |
| 1778080083 | 11.11° C | 97% | 1036.8 hPa | 0 mm | - | 73 W/m² | - |
| 1778079781 | 11.11° C | 97% | 1037 hPa | 0 mm | - | 69 W/m² | - |
| 1778079477 | 11.11° C | 97% | 1037 hPa | 0 mm | - | 57 W/m² | - |
| 1778079174 | 10.56° C | 97% | 1036.8 hPa | 0 mm | - | 56 W/m² | - |
| 1778078871 | 10.56° C | 97% | 1036.6 hPa | 0 mm | - | 36 W/m² | - |
| 1778078568 | 10.56° C | 98% | 1036.7 hPa | 0 mm | - | 44 W/m² | - |
| 1778078266 | 10.56° C | 97% | 1037 hPa | 0 mm | - | 49 W/m² | - |
| 1778077963 | 10.56° C | 97% | 1036.9 hPa | 0 mm | - | 53 W/m² | - |
| 1778077661 | 10.56° C | 97% | 1036.9 hPa | 0 mm | - | 43 W/m² | - |
| 1778077359 | 10.56° C | 98% | 1036.9 hPa | 0 mm | - | 42 W/m² | - |
| 1778077057 | 10.56° C | 98% | 1036.6 hPa | 0 mm | - | 62 W/m² | - |
* Rain latest hour (hover to see other rain measurements)
** Current wind speed in m/s (hover to see current wind gust speed)